Location: McFarlands Corners
(41.4117°N, 81.3382°W)
Time: 01:22:27
(UTC+00:00)

Tiros 1 - Pass Details

Date: 21 February 2026
Orbit: 618 x 649 km, 48.4° (Epoch: 10 March)

Event Time Altitude Azimuth Distance (km) Brightness Sun altitude
Rises 17:39:51 0° 298° (WNW) 2,899 10.3 38.2°
Reaches altitude 10° 17:42:11 10° 301° (WNW) 1,988 9.5 38.2°
Maximum altitude 17:46:45 72° 26° (NNE) 652 7.6 38.2°
Drops below altitude 10° 17:51:16 10° 111° (ESE) 1,974 9.9 38.1°
Sets 17:53:35 0° 113° (ESE) 2,878 10.7 38.1°
